Milford, UT

8:07 AM MDT on March 30, 2017 (GMT -0600)
Milford Municipal

Weather History for KMLF - January, 2013

Change the Weather History Date:

Friday, January 25, 2013

  Actual Average Record
Temperature  
Mean Temperature 34 °F -  
Max Temperature 36 °F 41 °F 55 °F (2002)
Min Temperature 32 °F 19 °F -2 °F (2007)
Degree Days  
Heating Degree Days 30    
Moisture  
Dew Point 33 °F    
Average Humidity 93    
Maximum Humidity 100    
Minimum Humidity 80    
Precipitation  
Precipitation 0.00 in - - ()
Sea Level Pressure  
Sea Level Pressure 30.25 in    
Wind  
Wind Speed 2 mph (NNW)    
Max Wind Speed 8 mph    
Max Gust Speed -    
Visibility 2 miles    
Events Fog , Rain    
Averages and records for this station are not official NWS values.
T = Trace of Precipitation, MM = Missing Value Source: NWS Daily Summary

Daily Weather History Graph

Daily Weather History Graph

Search for Another Location

Airport or City:

Trip Planner

Search our weather history database for the weather conditions in past years. The results will help you decide how hot, cold, wet, or windy it might be!

Date:

Astronomy

Jan. 25, 2013 Rise Set
Actual Time 7:42 AM MST 5:46 PM MST
Civil Twilight 7:14 AM MST 6:15 PM MST
Nautical Twilight 6:42 AM MST 6:47 PM MST
Astronomical Twilight 6:10 AM MST 7:18 PM MST
Moon 4:47 PM MST (1/25) 6:24 AM MST (1/25)
Length of Visible Light 11h 00m
Length of Day
10h 04m
Waxing Gibbous, 98% of the Moon is Illuminated
Jan 25
Waxing Gibbous
Jan 26
Full
Feb 3
Last Quarter
Feb 10
New
Feb 17
First Quarter

Hourly Weather History & Observations

Time (MST) Temp. Windchill Dew Point Humidity Pressure Visibility Wind Dir Wind Speed Gust Speed Precip Events Conditions
12:02 AM 33.8 °F 30.8 °F 30.2 °F 87% 30.28 in 1.8 mi NE 3.5 mph - N/A   Overcast
12:05 AM 33.8 °F 30.8 °F 30.2 °F 87% 30.27 in 1.2 mi NE 3.5 mph - N/A   Overcast
12:07 AM 33.8 °F - 30.2 °F 87% 30.27 in 0.8 mi Calm Calm - N/A   Overcast
12:52 AM 33.1 °F 30.0 °F 30.9 °F 92% 30.30 in 0.2 mi North 3.5 mph - N/A Fog Fog
1:30 AM 33.8 °F - 32.0 °F 93% 30.28 in 0.2 mi Calm Calm - N/A Fog Fog
1:52 AM 33.1 °F 30.0 °F 32.0 °F 96% 30.29 in 0.8 mi North 3.5 mph - 0.00 in   Overcast
2:26 AM 33.8 °F 27.7 °F 32.0 °F 93% 30.28 in 1.2 mi NNW 6.9 mph - N/A   Overcast
2:34 AM 33.8 °F 27.7 °F 32.0 °F 93% 30.28 in 1.8 mi NNW 6.9 mph - N/A   Overcast
2:41 AM 33.8 °F 29.6 °F 32.0 °F 93% 30.27 in 2.5 mi NNW 4.6 mph - N/A   Overcast
2:52 AM 33.1 °F 28.7 °F 32.0 °F 96% 30.29 in 3.0 mi NNW 4.6 mph - 0.00 in Rain Light Rain
3:30 AM 33.8 °F - 32.0 °F 93% 30.28 in 2.5 mi Calm Calm - 0.00 in Rain Light Rain
3:40 AM 33.8 °F - 32.0 °F 93% 30.28 in 1.0 mi Calm Calm - 0.00 in Rain Light Rain
3:52 AM 33.1 °F - 32.0 °F 96% 30.30 in 0.8 mi Calm Calm - 0.00 in   Overcast
4:19 AM 33.8 °F - 32.0 °F 93% 30.28 in 1.0 mi Calm Calm - N/A   Overcast
4:52 AM 33.1 °F - 32.0 °F 96% 30.30 in 1.0 mi Calm Calm - 0.00 in Rain Light Rain
4:58 AM 33.8 °F - 32.0 °F 93% 30.27 in 1.0 mi Calm Calm - 0.00 in Rain Light Rain
5:13 AM 33.8 °F - 32.0 °F 93% 30.27 in 1.2 mi Calm Calm - 0.00 in   Overcast
5:24 AM 33.8 °F - 32.0 °F 93% 30.27 in 1.5 mi Calm Calm - 0.00 in   Overcast
5:41 AM 33.8 °F - 32.0 °F 93% 30.26 in 1.8 mi Calm Calm - 0.00 in   Overcast
5:52 AM 33.1 °F - 32.0 °F 96% 30.28 in 2.0 mi Calm Calm - 0.00 in   Overcast
6:08 AM 33.8 °F - 32.0 °F 93% 30.26 in 3.0 mi Calm Calm - N/A   Overcast
6:13 AM 33.8 °F - 32.0 °F 93% 30.26 in 3.0 mi Calm Calm - N/A   Overcast
6:44 AM 33.8 °F 30.8 °F 32.0 °F 93% 30.26 in 3.0 mi WSW 3.5 mph - N/A   Overcast
6:52 AM 33.1 °F 30.0 °F 30.9 °F 92% 30.29 in 2.0 mi West 3.5 mph - N/A   Overcast
7:01 AM 33.8 °F 29.6 °F 32.0 °F 93% 30.26 in 3.0 mi WSW 4.6 mph - N/A   Overcast
7:23 AM 33.8 °F 29.6 °F 32.0 °F 93% 30.26 in 4.0 mi WSW 4.6 mph - N/A   Overcast
7:45 AM 33.8 °F - 32.0 °F 93% 30.25 in 5.0 mi Calm Calm - N/A   Overcast
7:52 AM 33.1 °F - 32.0 °F 96% 30.27 in 4.0 mi Calm Calm - N/A   Overcast
7:56 AM 33.8 °F 30.8 °F 30.2 °F 87% 30.26 in 1.5 mi SSE 3.5 mph - N/A   Overcast
8:07 AM 33.8 °F 29.6 °F 30.2 °F 87% 30.26 in 0.8 mi South 4.6 mph - N/A   Overcast
8:15 AM 33.8 °F - 30.2 °F 87% 30.26 in 1.0 mi Calm Calm - N/A   Overcast
8:52 AM 33.1 °F - 32.0 °F 96% 30.29 in 1.2 mi North - - N/A   Overcast
9:02 AM 33.8 °F - 33.8 °F 100% 30.27 in 1.5 mi Calm Calm - N/A   Overcast
9:29 AM 35.6 °F - 33.8 °F 93% 30.27 in 0.8 mi Calm Calm - N/A   Overcast
9:52 AM 35.1 °F 30.1 °F 33.1 °F 92% 30.30 in 1.8 mi SSE 5.8 mph - N/A   Overcast
9:59 AM 35.6 °F 30.7 °F 33.8 °F 93% 30.27 in 2.0 mi South 5.8 mph - N/A   Overcast
10:16 AM 35.6 °F - 33.8 °F 93% 30.28 in 1.5 mi Calm Calm - N/A   Overcast
10:22 AM 35.6 °F - 33.8 °F 93% 30.28 in 1.2 mi Calm Calm - N/A   Overcast
10:30 AM 35.6 °F - 33.8 °F 93% 30.28 in 1.5 mi Calm Calm - N/A   Overcast
10:40 AM 35.6 °F - 35.6 °F 100% 30.27 in 1.2 mi Calm Calm - N/A   Overcast
10:57 AM 35.6 °F - 35.6 °F 100% 30.28 in 1.5 mi Calm Calm - N/A   Overcast
11:01 AM 35.6 °F - 35.6 °F 100% 30.28 in 2.0 mi Calm Calm - N/A   Overcast
11:07 AM 35.6 °F - 35.6 °F 100% 30.28 in 2.5 mi Calm Calm - N/A   Overcast
11:16 AM 37.4 °F - 35.6 °F 93% 30.27 in 3.0 mi Calm Calm - N/A   Overcast
11:27 AM 37.4 °F - 35.6 °F 93% 30.27 in 5.0 mi Calm Calm - N/A   Overcast
11:52 AM 37.9 °F - 36.0 °F 93% 30.27 in 5.0 mi Calm Calm - N/A   Overcast
12:46 PM 39.2 °F 35.9 °F 35.6 °F 87% 30.21 in 9.0 mi SSE 4.6 mph - N/A   Overcast
12:52 PM 39.0 °F 35.7 °F 36.0 °F 89% 30.22 in 10.0 mi SSE 4.6 mph - N/A   Overcast
1:52 PM 39.9 °F 35.8 °F 36.0 °F 86% 30.20 in 8.0 mi South 5.8 mph - N/A   Partly Cloudy
2:52 PM 42.1 °F - 37.0 °F 82% 30.18 in 10.0 mi North - - N/A   Scattered Clouds
3:32 PM 37.4 °F 32.1 °F 33.8 °F 87% 30.17 in 0.2 mi North 6.9 mph - N/A Fog Fog
3:52 PM 36.0 °F 29.6 °F 34.0 °F 93% 30.19 in 0.2 mi North 8.1 mph - N/A Fog Fog
4:52 PM 36.0 °F 30.3 °F 35.1 °F 97% 30.19 in 0.2 mi NE 6.9 mph - N/A Fog Fog
5:52 PM 35.1 °F 29.3 °F 33.1 °F 92% 30.19 in 0.2 mi North 6.9 mph - N/A Fog Fog
6:52 PM 34.0 °F - 34.0 °F 100% 30.20 in 0.2 mi Calm Calm - N/A Fog Fog
7:52 PM 34.0 °F - 33.1 °F 96% 30.19 in 0.2 mi Calm Calm - N/A Fog Fog
8:00 PM - - - N/A% - - North - - N/A   Unknown
8:52 PM 34.0 °F 29.8 °F 32.0 °F 92% 30.17 in 0.2 mi NE 4.6 mph - N/A Fog Fog
9:52 PM 33.1 °F 30.0 °F 32.0 °F 96% 30.17 in 0.2 mi North 3.5 mph - N/A Fog Fog
10:52 PM 33.1 °F - 32.0 °F 96% 30.15 in 0.2 mi Calm Calm - N/A Fog Fog
11:52 PM 32.0 °F - 30.9 °F 96% 30.15 in 0.2 mi Calm Calm - N/A Fog Fog